Погода в Вярвеле

Россия / Республика Мордовия     54°00′52″N   44°08′24″E
темп.,
°C
ветер,
м/с
пор.,
м/с
влажн.,
%
обл.,
%
осадки,
мм/ч
давл.,
гПа
погр.,
м
17 мая, пн
пн1700:00+16всв118299 0.0 101511
03:00+16вюв228680 0.0 101514
06:00+18юв237825 0.0 101566
09:00+23ю356235 0.0 1015382
12:00+27ю464881 0.0 1016829
15:00+28ююв384557 0.0 10152026
18:00+25ююв225968 0.0 101524
21:00+19в485817 0.0 1015107
18 мая, вт
вт1800:00+16вюв4127228 0.0 1015166
03:00+15вюв487146 0.0 101598
06:00+17вюв4107354 0.0 1015176
09:00+23вюв512617 0.0 1014438
12:00+27юв69515 0.0 10141061
15:00+27юв610515 0.0 1013888
18:00+23вюв411665 0.0 1013272
21:00+19вюв514662 0.0 1013230
19 мая, ср
ср1900:00+19вюв6165536 0.0 1013322
03:00+17вюв514550 0.0 1012207
06:00+16вюв6156719 0.0 1013256
09:00+22вюв614665 0.0 1012479
12:00+26вюв711573 0.0 10121220
15:00+27вюв711540 0.0 10111218
18:00+24вюв510670 0.0 1011273
21:00+20вюв718682 0.0 1011542
20 мая, чт
чт2000:00+18вюв6137049 0.0 1011311
03:00+16вюв615743 0.0 1011517
06:00+17вюв71480100 0.0 1011723
09:00+20юв8117599 0.0 10101114
12:00+19ююв5980100 1.4 1010848
15:00+15ю51094100 13.3 1011665
18:00+13вюв4796100 7.0 1010326
21:00+13юв41096100 7.0 1011280
21 мая, пт
пт2100:00+12ю3896100 0.0 1011200
03:00+11ююз39960 0.0 1012193
06:00+12ююз48921 0.0 1013288
09:00+16ююз467456 0.0 1013678
12:00+17юз7975100 0.9 10141161
15:00+17ююз6107912 1.5 1014935
18:00+17ююз5108365 2.1 1013619
21:00+13ююз4109263 3.5 1014214